Вернуться в каталог

FENGYUN 1C DEB

АктивенPO
NORAD 32460·DEBRIS·🇨🇳 China

Запущен May 10, 1999 с Taiyuan Satellite Launch Center

Loading…

Ближайшие Пролёты (ближайшие 24 часа)

TLE

УстаревающийSource: Space-Track

Эпоха: Sep 7, 2026, 06:39 UTC

1 32460U 99025DBY 26250.27711983  .00000512  00000-0  38167-3 0  9999
2 32460  98.0414   4.0870 0186880  94.5693 267.6841 13.90344849689843

Отслеживайте FENGYUN 1C DEB в реальном времени с AllMySat

Download on the App Store